Location: Breux
(46.3269°N, 3.2993°E)
Time: 14:51:06
(UTC+00:00)

STARLINK-1240 - Pass Details

Date: 09 April 2020
Orbit: 549 x 551 km, 53.0° (Epoch: 28 May)

Event Time Altitude Azimuth Distance (km) Brightness Sun altitude
Rises 20:03:54 0° 300° (WNW) 2,733 9.0 -16.3°
Reaches altitude 10° 20:06:10 10° 303° (WNW) 1,837 7.6 -16.7°
Maximum altitude 20:10:19 66° 26° (NNE) 607 3.8 -17.3°
Enters shadow 20:11:53 36° 97° (E) 891 4.2 -17.5°
